Home   Weather   Braunschweig   Past weeks
Flag for Germany

Past Weather in Braunschweig, Lower Saxony, Germany — Yesterday and Last 2 Weeks

Now
41 °F

Passing clouds.


Feels Like: 37 °F
Forecast: 56 / 46 °F
Wind: 6 mph from Southwest

Location: Celle Airport

Current Time: Dec 16, 2019 at 1:31:01 am

Latest Report: Dec 16, 2019 at 12:20 am


Visibility: N/A

Pressure: 29.74 "Hg

Humidity: 76%

Dew Point: 34 °F

Location of BraunschweigLocation

Past Weather in Braunschweig — Graph

°F

Braunschweig Temperature Yesterday

Maximum temperature yesterday: 48 °F (at 10:20 am)
Minimum temperature yesterday: 36 °F (at 2:20 am)
Average temperature yesterday: 44 °F

High & Low Weather Summary for the Past Weeks

 TemperatureHumidityPressure
High52 °F (Dec 8, 12:20 pm)100% (Dec 1, 12:20 am)30.33 "Hg (Dec 1, 12:20 am)
Low25 °F (Dec 5, 4:20 am)57% (Dec 11, 2:20 am)28.88 "Hg (Dec 13, 12:20 pm)
Average39 °F88%29.78 "Hg
* Reported Dec 1 12:20 am — Dec 16 12:20 am, Braunschweig. Weather by CustomWeather, © 2019

Note: Actual official high and low records may vary slightly from our data, if they occured in-between our weather recording intervals... More about our weather records

Braunschweig Weather History for the Previous 24 Hours

Scroll right to see more
 ConditionsComfort  
Time TempWeatherWind HumidityBarometerVisibility
12:20 am
Mon, Dec 16
41 °FPassing clouds.6 mph76%29.74 "HgN/A
11:20 pm
Sun, Dec 15
43 °FPassing clouds.8 mph71%29.71 "HgN/A
10:20 pm45 °FPassing clouds.9 mph66%29.71 "HgN/A
9:20 pm45 °FPassing clouds.13 mph66%29.68 "HgN/A
8:20 pm46 °FPassing clouds.16 mph66%29.65 "HgN/A
7:20 pm46 °FPassing clouds.16 mph62%29.62 "HgN/A
6:20 pm46 °FPassing clouds.17 mph66%29.59 "HgN/A
5:20 pm46 °FCool.16 mph62%29.56 "HgN/A
4:20 pm46 °FCool.14 mph62%29.53 "HgN/A
3:20 pm46 °FCool.17 mph57%29.50 "HgN/A
2:20 pm48 °FCool.21 mph58%29.47 "HgN/A
1:20 pm48 °FCool.24 mph62%29.45 "HgN/A
12:20 pm48 °FCool.23 mph66%29.42 "HgN/A
11:20 am48 °FCool.24 mph71%29.39 "HgN/A
10:20 am48 °FCool.16 mph76%29.36 "HgN/A
9:20 am45 °FQuite cool.10 mph93%29.33 "HgN/A
8:20 am43 °FQuite cool.6 mph93%29.30 "Hg2 mi
7:20 am43 °FQuite cool.12 mph87%29.30 "HgN/A
6:20 am41 °FQuite cool.12 mph81%29.33 "Hg5 mi
5:20 am39 °FPassing clouds.8 mph81%29.36 "HgN/A
4:20 am37 °FPassing clouds.9 mph87%29.39 "HgN/A
3:20 am36 °FPartly cloudy.3 mph87%29.45 "HgN/A
2:20 am36 °FPassing clouds.5 mph81%29.45 "HgN/A
1:20 am39 °FPassing clouds.9 mph75%29.47 "HgN/A
Weather by CustomWeather, © 2019

See weather overview

Advertising